Weather History for Hagerstown, MD

Change the Weather History Date:

Sunday, November 27, 2011

  Actual Average Record
Temperature  
Mean Temperature 53 °F 40 °F  
Max Temperature 65 °F 48 °F 65 °F (2011)
Min Temperature 40 °F 33 °F 23 °F (1996)
Degree Days  
Heating Degree Days 12 25  
Month to date heating degree days 454 527  
Since 1 July heating degree days 851 929  
Cooling Degree Days 0 0  
Month to date cooling degree days 0 0  
Year to date cooling degree days 1313 969  
Growing Degree Days 2 (Base 50)    
Moisture  
Dew Point 42 °F    
Average Humidity 65    
Maximum Humidity 73    
Minimum Humidity 56    
Precipitation  
Precipitation 0.00 in 0.13 in 0.24 in (2012)
Month to date precipitation 3.21 2.84  
Year to date precipitation 43.60 36.02  
Sea Level Pressure  
Sea Level Pressure 30.10 in    
Wind  
Wind Speed 4 mph (SSE)    
Max Wind Speed 18 mph    
Max Gust Speed 22 mph    
Visibility 10 miles    
Events      
T = Trace of Precipitation, MM = Missing Value Source: NWS Daily Summary

Daily Weather History Graph

Daily Weather History Graph

Search for Another Location

Airport:

Trip Planner

Search our weather history database for the weather conditions in past years. The results will help you decide how hot, cold, wet, or windy it might be!

Date:

Astronomy

Nov. 27, 2011 Rise Set
Actual Time 7:08 AM EST 4:48 PM EST
Civil Twilight 6:38 AM EST 5:17 PM EST
Nautical Twilight 6:05 AM EST 5:51 PM EST
Astronomical Twilight 5:33 AM EST 6:23 PM EST
Moon 9:31 AM EST (11/27) 7:24 PM EST (11/27)
Length of Visible Light 10h 39m
Length of Day
9h 40m
Waxing Crescent, 8% of the Moon is Illuminated
Nov 27
Waxing Crescent
Dec 2
First Quarter
Dec 10
Full
Dec 17
Last Quarter
Dec 24
New

Hourly Weather History & Observations

Time (EST) Temp. Windchill Dew Point Humidity Pressure Visibility Wind Dir Wind Speed Gust Speed Precip Events Conditions
12:53 AM 46.0 °F - 34.0 °F 63% 30.16 in 10.0 mi Calm Calm - N/A   Clear
1:53 AM 48.0 °F - 34.0 °F 58% 30.15 in 10.0 mi South 4.6 mph - N/A   Clear
2:53 AM 45.0 °F - 34.0 °F 65% 30.15 in 10.0 mi Calm Calm - N/A   Clear
3:53 AM 45.0 °F - 34.0 °F 65% 30.14 in 10.0 mi Calm Calm - N/A   Clear
4:53 AM 44.1 °F 42.5 °F 34.0 °F 68% 30.13 in 10.0 mi ESE 3.5 mph - N/A   Clear
5:53 AM 41.0 °F - 33.1 °F 73% 30.14 in 10.0 mi Calm Calm - N/A   Clear
6:53 AM 43.0 °F - 34.0 °F 71% 30.14 in 10.0 mi Calm Calm - N/A   Clear
7:53 AM 44.1 °F - 35.1 °F 71% 30.15 in 10.0 mi Calm Calm - N/A   Clear
8:53 AM 48.0 °F - 37.9 °F 68% 30.16 in 10.0 mi Calm Calm - N/A   Clear
10:53 AM 53.1 °F - 43.0 °F 69% 30.14 in 10.0 mi WNW 5.8 mph - N/A   Clear
11:53 AM 59.0 °F - 46.0 °F 62% 30.09 in 10.0 mi Calm Calm - N/A   Clear
12:53 PM 61.0 °F - 46.9 °F 60% 30.08 in 10.0 mi SSW 3.5 mph - N/A   Clear
1:53 PM 64.0 °F - 48.0 °F 56% 30.04 in 10.0 mi SSE 15.0 mph 19.6 mph N/A   Clear
2:53 PM 64.9 °F - 48.9 °F 56% 30.05 in 10.0 mi SSE 10.4 mph - N/A   Clear
3:53 PM 64.0 °F - 48.9 °F 58% 30.06 in 10.0 mi SSE 11.5 mph - N/A   Clear
4:53 PM 63.0 °F - 48.0 °F 58% 30.05 in 10.0 mi SE 10.4 mph - N/A   Clear
5:53 PM 62.1 °F - 46.9 °F 58% 30.06 in 10.0 mi SSE 11.5 mph - N/A   Clear
6:53 PM 61.0 °F - 46.9 °F 60% 30.06 in 10.0 mi SSE 8.1 mph - N/A   Clear
7:53 PM 62.1 °F - 46.9 °F 58% 30.05 in 10.0 mi SSE 11.5 mph - N/A   Clear
8:53 PM 61.0 °F - 46.0 °F 58% 30.06 in 10.0 mi South 12.7 mph - N/A   Clear
9:53 PM 61.0 °F - 46.9 °F 60% 30.05 in 10.0 mi SSE 11.5 mph - N/A   Clear
10:53 PM 61.0 °F - 46.9 °F 60% 30.05 in 10.0 mi South 12.7 mph - N/A   Clear
11:53 PM 59.0 °F - 48.0 °F 67% 30.05 in 10.0 mi SSE 12.7 mph - N/A   Clear